Lubbock, TX

6:53 AM CST on November 20, 2019 (GMT -0600)
Lubbock International

Weather History for KLBB - September, 2019

Change the Weather History Date:

Saturday, September 28, 2019

  Actual Average Record
Temperature  
Mean Temperature 73 °F 67 °F  
Max Temperature 82 °F 81 °F 98 °F (1994)
Min Temperature 63 °F 54 °F 36 °F (1918)
Degree Days  
Heating Degree Days 0 2  
Month to date heating degree days 0 19  
Since 1 July heating degree days 0 19  
Cooling Degree Days 8 4  
Month to date cooling degree days 360 214  
Year to date cooling degree days 2078 1740  
Growing Degree Days 23 (Base 50)    
Moisture  
Dew Point 62 °F    
Average Humidity 73    
Maximum Humidity 93    
Minimum Humidity 42    
Precipitation  
Precipitation 1.26 in 0.07 in 1.13 in (2004)
Month to date precipitation 5.93 2.37  
Year to date precipitation 21.52 15.44  
Snow  
Snow 0.00 in 0.00 in 0.00 in (2002)
Month to date snowfall 0.0 0.0  
Since 1 July snowfall 0.0 0.0  
Since 1 September snowfall 0.0 0.0  
Snow Depth 0.00 in    
Sea Level Pressure  
Sea Level Pressure 29.81 in    
Wind  
Wind Speed 13 mph ()    
Max Wind Speed 30 mph    
Max Gust Speed 38 mph    
Visibility 8.2 miles    
Events Rain , Thunderstorm    
T = Trace of Precipitation, MM = Missing Value Source: Averaged Metar Reports

Daily Weather History Graph

Daily Weather History Graph

Search for Another Location

Airport or City:

Astronomy

Sep. 28, 2019 Rise Set
Actual Time 7:39 AM CDT 7:35 PM CDT
Civil Twilight 7:14 AM CDT 8:00 PM CDT
Nautical Twilight 6:45 AM CDT 8:29 PM CDT
Astronomical Twilight 6:16 AM CDT 8:58 PM CDT
Moon 7:22 AM CDT (9/28) 8:01 PM CDT (9/28)
Length of Visible Light 12h 46m
Length of Day
11h 56m
Waning Crescent, 0% of the Moon is Illuminated
Sep 28
Waning Crescent
Sep 28
New
Oct 5
First Quarter
Oct 13
Full
Oct 21
Last Quarter

Hourly Weather History & Observations

Time (CDT) Temp. Heat Index Dew Point Humidity Pressure Visibility Wind Dir Wind Speed Gust Speed Precip Events Conditions
12:41 AM 78.1 °F - 55.0 °F 45% 29.85 in 9.0 mi WNW 24.2 mph 32.2 mph N/A   Overcast
12:53 AM 78.1 °F - 53.1 °F 42% 29.67 in 10.0 mi WNW 10.4 mph 33.4 mph N/A   Mostly Cloudy
1:53 AM 73.0 °F - 54.0 °F 51% 29.68 in 10.0 mi NW 10.4 mph - N/A   Overcast
2:25 AM 71.1 °F - 55.0 °F 57% 29.83 in 10.0 mi North 9.2 mph - N/A Thunderstorm Thunderstorm
2:53 AM 68.0 °F - 59.0 °F 73% 29.77 in 3.0 mi WSW 28.8 mph 38.0 mph 0.00 in Rain , Thunderstorm Heavy Thunderstorms and Rain
2:56 AM 66.0 °F - 60.1 °F 81% 29.92 in 1.8 mi WSW 13.8 mph 38.0 mph 0.04 in Rain , Thunderstorm Heavy Thunderstorms and Rain
3:00 AM 66.0 °F - 60.1 °F 81% 29.93 in 1.2 mi West 9.2 mph 38.0 mph 0.18 in Rain , Thunderstorm Heavy Thunderstorms and Rain
3:09 AM 63.0 °F - 60.1 °F 90% 29.91 in 2.5 mi NNW 12.7 mph 17.3 mph 0.48 in Rain , Thunderstorm Heavy Thunderstorms and Rain
3:15 AM 64.4 °F - 60.8 °F 88% 29.91 in 5.0 mi NW 10.4 mph - N/A Rain , Thunderstorm Thunderstorms and Rain
3:26 AM 63.0 °F - 60.1 °F 90% 29.90 in 5.0 mi NNW 9.2 mph - 0.73 in Rain , Thunderstorm Thunderstorms and Rain
3:53 AM 64.0 °F - 61.0 °F 90% 29.76 in 8.0 mi WNW 13.8 mph - 0.85 in Rain , Thunderstorm Light Thunderstorms and Rain
4:53 AM 64.0 °F - 61.0 °F 90% 29.80 in 5.0 mi West 6.9 mph - 0.05 in Rain , Thunderstorm Light Thunderstorms and Rain
5:53 AM 63.0 °F - 61.0 °F 93% 29.77 in 5.0 mi East 12.7 mph - 0.26 in Rain Heavy Rain
6:27 AM 64.0 °F - 60.1 °F 87% 29.90 in 10.0 mi North 3.5 mph - 0.04 in Rain , Thunderstorm Light Thunderstorms and Rain
6:53 AM 66.0 °F - 60.1 °F 81% 29.76 in 7.0 mi South 18.4 mph 28.8 mph 0.05 in Rain , Thunderstorm Thunderstorms and Rain
7:11 AM 64.9 °F - 60.1 °F 84% 29.90 in 7.0 mi South 26.5 mph 36.8 mph 0.03 in Rain , Thunderstorm Thunderstorms and Rain
7:45 AM 64.9 °F - 61.0 °F 87% 29.91 in 10.0 mi SSE 15.0 mph - 0.04 in   Mostly Cloudy
7:53 AM 64.9 °F - 61.0 °F 87% 29.77 in 10.0 mi SSE 18.4 mph - 0.04 in   Mostly Cloudy
8:53 AM 64.9 °F - 62.1 °F 90% 29.80 in 10.0 mi SSE 6.9 mph - N/A   Mostly Cloudy
9:53 AM 66.9 °F - 62.1 °F 84% 29.77 in 10.0 mi SE 18.4 mph - N/A   Mostly Cloudy
10:53 AM 73.9 °F - 64.0 °F 71% 29.79 in 10.0 mi SSE 12.7 mph - 0.00 in   Scattered Clouds
11:53 AM 77.0 °F - 62.1 °F 60% 29.80 in 10.0 mi South 18.4 mph - N/A   Scattered Clouds
12:53 PM 79.0 °F - 66.0 °F 64% 29.79 in 10.0 mi South 23.0 mph 32.2 mph N/A   Scattered Clouds
1:53 PM 80.1 °F 81.9 °F 64.9 °F 60% 29.79 in 10.0 mi SSE 21.9 mph 29.9 mph N/A   Scattered Clouds
2:53 PM 80.1 °F 81.9 °F 64.9 °F 60% 29.78 in 10.0 mi South 20.7 mph - N/A   Scattered Clouds
3:53 PM 81.0 °F 82.5 °F 64.0 °F 56% 29.77 in 10.0 mi SSE 20.7 mph - N/A   Mostly Cloudy
4:53 PM 82.9 °F 85.4 °F 66.9 °F 58% 29.76 in 10.0 mi South 18.4 mph - 0.01 in   Mostly Cloudy
5:53 PM 80.1 °F 82.3 °F 66.9 °F 64% 29.75 in 10.0 mi South 11.5 mph - N/A   Mostly Cloudy
6:53 PM 80.1 °F 82.3 °F 66.9 °F 64% 29.75 in 10.0 mi South 10.4 mph - N/A   Mostly Cloudy
7:53 PM 78.1 °F - 66.9 °F 68% 29.76 in 10.0 mi South 8.1 mph - N/A   Mostly Cloudy
8:53 PM 79.0 °F - 64.9 °F 62% 29.77 in 10.0 mi South 10.4 mph - N/A   Overcast
9:53 PM 75.9 °F - 64.9 °F 69% 29.79 in 10.0 mi South 9.2 mph - N/A   Scattered Clouds
10:53 PM 73.0 °F - 66.9 °F 81% 29.78 in 10.0 mi SSE 9.2 mph - N/A   Partly Cloudy
11:53 PM 72.0 °F - 64.9 °F 78% 29.79 in 10.0 mi SE 8.1 mph - N/A   Scattered Clouds